{"data":{"norad_id":64676,"epoch":"2026-05-25T03:07:45.207840Z","epoch_age_seconds":60827,"freshness":"FRESH","line1":"1 64676U 25139N   26145.13038435  .00019208  00000+0  57830-3 0  9999","line2":"2 64676  53.1576 130.8341 0001381 103.6764 256.4392 15.34393033 52000","mean_motion":15.34393033,"eccentricity":0.0001381,"inclination_deg":53.1576,"raan_deg":130.8341,"arg_perigee_deg":103.6764,"mean_anomaly_deg":256.4392,"bstar":0.0005783,"rev_number":5200,"period_min":93.848184202489,"perigee_km":461.77922478081,"apogee_km":463.66867057456,"semimajor_km":6840.8609476777,"source":"CELESTRAK","updated_at":"2026-05-25T13:38:20.505014Z"}}